Darstellungsparameter: Aktuell verwendete Einstellungen:
Skalierung der Graphiken ... ?
xyx+y,   Skalierungsfaktor:      Skalierung: Modus: x, Faktor: 1
Darstellungszeitraum ... ?
Vom - - bis: - -   Zeitraum: 03.08.2009 - 02.08.2010
Min/Max/Avg-Anzeige ... ?
Zeige MMA aktuell
Zeige MMA Monat
Zeige MMA alles
Zeige --A aktuell
Zeige --A Monat
Zeige --A alles
Keine MMA-Anzeige
MMA:
Keine MMA-Graphiken
MMA-Basis: 03.08.2009 - 02.08.2010
Quicknavigation für Darstellung... ?
Tage:      1T, 2T, 3T, 5T -1T -2T -3T -5T +1T +2T +3T +5T
Wochen: 1W, 2W, 3W -1W -2W -3W +1W +2W +3W
Monate: 1M, 3M, 6M -1M -3M -6M +1M +3M +6M
Jahre:    1J, 3J, 5J, 10J -1J -3J -5J -10J +1J +3J +5J +10J
Nutze für die Darstellung ... ?
Originaldaten oder ...
Mittelwerte Minima Maxima auf...
Stundenbasis Tagesbasis Wochenbasis
Monatsbasis Jahresbasis      Datenbasis: Mittelwerte auf Tagesbasis
Darstellen als:
Statistik (Auto) Statistik J:M      Darstellung:
Zur Graphik,    zurück zur Übersicht aller Sensoren.
 
Tabellarische Datenbersicht: ?
 
Sensor: Nr:Datum:Temp:Feuchte:Taupunkt:
Aussen-T/F 1 03-08-2009 00:00:00 19.3075 C 57.0000 % 10.58 C
2 04-08-2009 00:00:00 20.48917 C 50.3583 % 9.82 C
3 05-08-2009 00:00:00 22.0275 C 42.0333 % 8.54 C
4 06-08-2009 00:00:00 24.19667 C 43.2167 % 10.91 C
5 07-08-2009 00:00:00 25.2075 C 43.4333 % 11.9 C
6 08-08-2009 00:00:00 21.22583 C 66.1417 % 14.66 C
7 09-08-2009 00:00:00 22.82101 C 59.6975 % 14.57 C
8 10-08-2009 00:00:00 21.7025 C 61.8167 % 14.06 C
9 11-08-2009 00:00:00 20.44 C 65.4917 % 13.76 C
10 12-08-2009 00:00:00 20.9725 C 61.3833 % 13.27 C
11 13-08-2009 00:00:00 18.55917 C 80.7583 % 15.19 C
12 14-08-2009 00:00:00 19.44083 C 64.8500 % 12.66 C
13 15-08-2009 00:00:00 21.37917 C 56.0917 % 12.27 C
14 16-08-2009 00:00:00 23.84583 C 51.0000 % 13.1 C
15 17-08-2009 00:00:00 23.615 C 52.9250 % 13.46 C
16 18-08-2009 00:00:00 22.105 C 48.4000 % 10.71 C
17 19-08-2009 00:00:00 23.76 C 47.2250 % 11.85 C
18 20-08-2009 00:00:00 26.03167 C 46.7167 % 13.75 C
19 21-08-2009 00:00:00 20.32185 C 60.7227 % 12.49 C
20 22-08-2009 00:00:00 19.745 C 53.6417 % 10.08 C
21 23-08-2009 00:00:00 20.0375 C 48.0000 % 8.7 C
22 24-08-2009 00:00:00 22.19667 C 47.2333 % 10.43 C
23 25-08-2009 00:00:00 23.11917 C 51.5583 % 12.6 C
24 26-08-2009 00:00:00 21.68417 C 51.2750 % 11.19 C
25 27-08-2009 00:00:00 23.10167 C 50.6833 % 12.32 C
Sensor: Nr:Datum:Temp:Feuchte:Taupunkt:
Aussen-T/F 26 28-08-2009 00:00:00 21.60583 C 44.5167 % 9.01 C
27 29-08-2009 00:00:00 16.21167 C 47.9917 % 5.2 C
28 30-08-2009 00:00:00 16.655 C 48.9833 % 5.9 C
29 31-08-2009 00:00:00 19.54667 C 45.1583 % 7.36 C
30 01-09-2009 00:00:00 19.93167 C 59.1917 % 11.73 C
31 02-09-2009 00:00:00 18.765 C 58.3500 % 10.43 C
32 03-09-2009 00:00:00 17.39328 C 58.5546 % 9.19 C
33 04-09-2009 00:00:00 14.56333 C 65.8333 % 8.25 C
34 05-09-2009 00:00:00 15.10833 C 58.8417 % 7.12 C
35 06-09-2009 00:00:00 14.74583 C 65.4917 % 8.35 C
36 07-09-2009 00:00:00 17.63417 C 59.2667 % 9.6 C
37 08-09-2009 00:00:00 19.88167 C 55.6000 % 10.74 C
38 09-09-2009 00:00:00 19.7475 C 55.6250 % 10.63 C
39 10-09-2009 00:00:00 18.43917 C 65.5417 % 11.87 C
40 11-09-2009 00:00:00 17.6725 C 48.9250 % 6.81 C
41 12-09-2009 00:00:00 16.99083 C 50.4917 % 6.65 C
42 13-09-2009 00:00:00 14.23 C 70.4250 % 8.93 C
43 14-09-2009 00:00:00 12.17417 C 93.7250 % 11.19 C
44 15-09-2009 00:00:00 13.7563 C 90.4790 % 12.23 C
45 16-09-2009 00:00:00 16.725 C 80.7417 % 13.4 C
46 17-09-2009 00:00:00 18.47583 C 63.0583 % 11.32 C
47 18-09-2009 00:00:00 18.26083 C 63.1333 % 11.14 C
48 19-09-2009 00:00:00 20.78583 C 61.2500 % 13.06 C
49 20-09-2009 00:00:00 19.92833 C 69.1167 % 14.1 C
50 21-09-2009 00:00:00 18.85833 C 66.5250 % 12.49 C
Sensor: Nr:Datum:Temp:Feuchte:Taupunkt:
Aussen-T/F 51 22-09-2009 00:00:00 17.215 C 64.9583 % 10.57 C
52 23-09-2009 00:00:00 17.4225 C 65.4750 % 10.89 C
53 24-09-2009 00:00:00 17.19 C 71.3833 % 11.97 C
54 25-09-2009 00:00:00 15.16083 C 67.2333 % 9.13 C
55 26-09-2009 00:00:00 14.56333 C 65.6083 % 8.2 C
56 27-09-2009 00:00:00 14.64 C 65.5500 % 8.26 C
57 28-09-2009 00:00:00 14.21583 C 69.3333 % 8.69 C
58 29-09-2009 00:00:00 15.88319 C 64.1513 % 9.12 C
59 30-09-2009 00:00:00 16.535 C 70.9500 % 11.25 C
60 01-10-2009 00:00:00 14.71583 C 70.4750 % 9.41 C
61 02-10-2009 00:00:00 11.32167 C 64.4833 % 4.88 C
62 03-10-2009 00:00:00 11.72333 C 64.5500 % 5.27 C
63 04-10-2009 00:00:00 13.54167 C 67.7083 % 7.69 C
64 05-10-2009 00:00:00 12.4075 C 91.3500 % 11.04 C
65 06-10-2009 00:00:00 16.13417 C 87.9333 % 14.13 C
66 07-10-2009 00:00:00 19.57083 C 76.5667 % 15.34 C
67 08-10-2009 00:00:00 16.41167 C 71.5083 % 11.25 C
68 09-10-2009 00:00:00 11.88417 C 71.4583 % 6.89 C
69 10-10-2009 00:00:00 13.34667 C 83.3667 % 10.59 C
70 11-10-2009 00:00:00 12.35042 C 81.0420 % 9.19 C
71 12-10-2009 00:00:00 10.9275 C 64.5583 % 4.52 C
72 13-10-2009 00:00:00 9.24333 C 70.8833 % 4.24 C
73 14-10-2009 00:00:00 4.27333 C 67.6167 % -1.17 C
74 15-10-2009 00:00:00 3.45583 C 68.1750 % -1.84 C
75 16-10-2009 00:00:00 6.41083 C 77.8417 % 2.83 C
Sensor: Nr:Datum:Temp:Feuchte:Taupunkt:
Aussen-T/F 76 17-10-2009 00:00:00 8.52083 C 65.8417 % 2.51 C
77 18-10-2009 00:00:00 7.3775 C 67.8000 % 1.83 C
78 19-10-2009 00:00:00 4.59 C 71.1667 % -0.17 C
79 20-10-2009 00:00:00 5.17083 C 70.1250 % 0.18 C
80 21-10-2009 00:00:00 8.07333 C 60.4667 % 0.9 C
81 22-10-2009 00:00:00 9.4 C 65.3833 % 3.25 C
82 23-10-2009 00:00:00 8.34 C 83.1083 % 5.65 C
83 24-10-2009 00:00:00 10.5084 C 80.4958 % 7.3 C
84 25-10-2009 00:00:00 12.6096 C 75.8400 % 8.46 C
85 26-10-2009 00:00:00 11.8875 C 71.4000 % 6.89 C
86 27-10-2009 00:00:00 11.82417 C 72.3750 % 7.02 C
87 28-10-2009 00:00:00 8.37917 C 83.3000 % 5.72 C
88 29-10-2009 00:00:00 8.69333 C 86.5333 % 6.58 C
89 30-10-2009 00:00:00 10.54083 C 78.0750 % 6.89 C
90 31-10-2009 00:00:00 7.03083 C 74.9917 % 2.91 C
91 01-11-2009 00:00:00 9.17333 C 75.6500 % 5.1 C
92 02-11-2009 00:00:00 10.32333 C 86.4250 % 8.16 C
93 03-11-2009 00:00:00 8.06167 C 74.6333 % 3.84 C
94 04-11-2009 00:00:00 8.75 C 80.8000 % 5.64 C
95 05-11-2009 00:00:00 9.29748 C 68.9916 % 3.91 C
96 06-11-2009 00:00:00 9.43333 C 69.3000 % 4.1 C
97 07-11-2009 00:00:00 8.11583 C 71.3500 % 3.25 C
98 08-11-2009 00:00:00 6.9 C 82.2833 % 4.09 C
99 09-11-2009 00:00:00 6.21167 C 85.0833 % 3.9 C
100 10-11-2009 00:00:00 6.03 C 93.3833 % 5.04 C
Sensor: Nr:Datum:Temp:Feuchte:Taupunkt:
Aussen-T/F 101 11-11-2009 00:00:00 6.2525 C 83.7333 % 3.71 C
102 12-11-2009 00:00:00 4.66 C 91.2500 % 3.36 C
103 13-11-2009 00:00:00 11.27583 C 81.1833 % 8.17 C
104 14-11-2009 00:00:00 11.7125 C 75.2250 % 7.48 C
105 15-11-2009 00:00:00 11.2125 C 67.9167 % 5.52 C
106 16-11-2009 00:00:00 10.92667 C 85.6250 % 8.61 C
107 17-11-2009 00:00:00 10.88235 C 85.3697 % 8.53 C
108 18-11-2009 00:00:00 10.245 C 65.3583 % 4.04 C
109 19-11-2009 00:00:00 9.77667 C 70.9667 % 4.77 C
110 20-11-2009 00:00:00 7.87917 C 83.2417 % 5.22 C
111 21-11-2009 00:00:00 11.67333 C 74.7417 % 7.35 C
112 22-11-2009 00:00:00 11.84167 C 61.4167 % 4.67 C
113 23-11-2009 00:00:00 10.33417 C 72.1583 % 5.55 C
114 24-11-2009 00:00:00 11.89833 C 68.9917 % 6.4 C
115 25-11-2009 00:00:00 12.0875 C 59.3750 % 4.42 C
116 26-11-2009 00:00:00 9.98917 C 60.9833 % 2.82 C
117 27-11-2009 00:00:00 9.0425 C 63.1500 % 2.42 C
118 28-11-2009 00:00:00 8.79 C 68.4583 % 3.31 C
119 29-11-2009 00:00:00 9.41597 C 67.3361 % 3.68 C
120 30-11-2009 00:00:00 6.46 C 84.5500 % 4.05 C
121 01-12-2009 00:00:00 5.65583 C 83.5583 % 3.1 C
122 02-12-2009 00:00:00 5.96 C 72.1333 % 1.33 C
123 03-12-2009 00:00:00 8.53667 C 70.9333 % 3.57 C
124 04-12-2009 00:00:00 4.73917 C 65.4500 % -1.17 C
125 05-12-2009 00:00:00 5.3975 C 73.5583 % 1.06 C
Sensor: Nr:Datum:Temp:Feuchte:Taupunkt:
Aussen-T/F 126 06-12-2009 00:00:00 9.83 C 80.9583 % 6.72 C
127 07-12-2009 00:00:00 5.59917 C 85.0833 % 3.3 C
128 08-12-2009 00:00:00 6.95833 C 81.1250 % 3.95 C
129 09-12-2009 00:00:00 7.2525 C 78.5917 % 3.79 C
130 10-12-2009 00:00:00 8.78583 C 80.4000 % 5.6 C
131 11-12-2009 00:00:00 6.665 C 81.1917 % 3.68 C
132 12-12-2009 00:00:00 3.47833 C 86.1750 % 1.39 C
133 13-12-2009 00:00:00 1.50924 C 65.8487 % -4.17 C
134 14-12-2009 00:00:00 -0.80667 C 58.3583 % -7.95 C
135 15-12-2009 00:00:00 -0.50083 C 61.5917 % -6.96 C
136 16-12-2009 00:00:00 -1.19917 C 62.6167 % -7.41 C
137 17-12-2009 00:00:00 -4.445 C 73.9500 % -8.38 C
138 18-12-2009 00:00:00 -5.04417 C 68.9417 % -9.85 C
139 19-12-2009 00:00:00 -12.79 C 58.7000 % -19.18 C
140 20-12-2009 00:00:00 -8.03917 C 68.5500 % -12.79 C
141 21-12-2009 00:00:00 -2.18417 C 78.2000 % -5.46 C
142 22-12-2009 00:00:00 2.7175 C 87.1750 % 0.8 C
143 23-12-2009 00:00:00 0.49333 C 93.2833 % -0.46 C
144 24-12-2009 00:00:00 2.31333 C 90.7833 % 0.97 C
145 25-12-2009 00:00:00 4.38824 C 77.7983 % 0.86 C
146 26-12-2009 00:00:00 2.04583 C 79.8417 % -1.06 C
147 27-12-2009 00:00:00 0.5475 C 87.0417 % -1.35 C
148 28-12-2009 00:00:00 3.1425 C 74.7333 % -0.9 C
149 29-12-2009 00:00:00 0.4625 C 92.0917 % -0.67 C
150 30-12-2009 00:00:00 7.05667 C 93.4917 % 6.08 C
Sensor: Nr:Datum:Temp:Feuchte:Taupunkt:
Aussen-T/F 151 31-12-2009 00:00:00 5.32667 C 94.8417 % 4.57 C
152 01-01-2010 00:00:00 -0.1725 C 91.5333 % -1.38 C
153 02-01-2010 00:00:00 -1.51083 C 76.5417 % -5.09 C
154 03-01-2010 00:00:00 -1.79667 C 80.7750 % -4.66 C
155 04-01-2010 00:00:00 -5.24083 C 72.0250 % -9.48 C
156 05-01-2010 00:00:00 -8.00083 C 81.2667 % -10.64 C
157 06-01-2010 00:00:00 -6.88917 C 75.9167 % -10.41 C
158 07-01-2010 00:00:00 -3.75966 C 75.0084 % -7.53 C
159 08-01-2010 00:00:00 -4.82167 C 73.6333 % -8.8 C
160 09-01-2010 00:00:00 -2.655 C 75.7333 % -6.34 C
161 10-01-2010 00:00:00 -1.87083 C 76.9583 % -5.37 C
162 11-01-2010 00:00:00 -1.42833 C 82.4667 % -4.02 C
163 12-01-2010 00:00:00 -1.65833 C 78.7583 % -4.85 C
164 13-01-2010 00:00:00 -2.2325 C 72.0917 % -6.57 C
165 14-01-2010 00:00:00 0.35417 C 80.1083 % -2.66 C
166 15-01-2010 00:00:00 0.87333 C 79.1833 % -2.31 C
167 16-01-2010 00:00:00 -0.11833 C 78.0000 % -3.48 C
168 17-01-2010 00:00:00 2.09667 C 91.1500 % 0.81 C
169 18-01-2010 00:00:00 3.38333 C 83.1500 % 0.8 C
170 19-01-2010 00:00:00 2.24583 C 90.2833 % 0.82 C
171 20-01-2010 00:00:00 1.97417 C 83.9417 % -0.45 C
172 21-01-2010 00:00:00 2.45126 C 70.1933 % -2.41 C
173 22-01-2010 00:00:00 2.93667 C 71.6750 % -1.66 C
174 23-01-2010 00:00:00 -0.41333 C 71.4167 % -4.94 C
175 24-01-2010 00:00:00 0.27167 C 82.1667 % -2.4 C
Sensor: Nr:Datum:Temp:Feuchte:Taupunkt:
Aussen-T/F 176 25-01-2010 00:00:00 0.01667 C 86.3167 % -1.99 C
177 26-01-2010 00:00:00 -3.325 C 73.0333 % -7.46 C
178 27-01-2010 00:00:00 -5.54083 C 66.7000 % -10.74 C
179 28-01-2010 00:00:00 1.20667 C 76.7750 % -2.41 C
180 29-01-2010 00:00:00 1.39083 C 84.4333 % -0.94 C
181 30-01-2010 00:00:00 -1.54583 C 77.9250 % -4.89 C
182 31-01-2010 00:00:00 -1.62333 C 73.9000 % -5.66 C
183 01-02-2010 00:00:00 0.20167 C 75.0083 % -3.69 C
184 02-02-2010 00:00:00 0.69916 C 78.5798 % -2.59 C
185 03-02-2010 00:00:00 2.28899 C 89.1468 % 0.69 C
186 04-02-2010 00:00:00 4.17018 C 86.3684 % 2.1 C
187 05-02-2010 00:00:00 3.29649 C 80.7719 % 0.32 C
188 06-02-2010 00:00:00 4.55172 C 82.9483 % 1.91 C
189 07-02-2010 00:00:00 4.17018 C 78.0526 % 0.7 C
190 08-02-2010 00:00:00 -0.75 C 62.0517 % -7.1 C
191 09-02-2010 00:00:00 -3.74483 C 58.3621 % -10.71 C
192 10-02-2010 00:00:00 -4.8 C 67.0702 % -9.96 C
193 11-02-2010 00:00:00 -3.79828 C 70.5345 % -8.36 C
194 12-02-2010 00:00:00 -2.14737 C 70.6140 % -6.76 C
195 13-02-2010 00:00:00 -2.57414 C 69.6724 % -7.34 C
196 14-02-2010 00:00:00 -2.13621 C 74.1379 % -6.11 C
197 15-02-2010 00:00:00 -1.12632 C 71.6491 % -5.58 C
198 16-02-2010 00:00:00 -1.16379 C 67.5690 % -6.39 C
199 17-02-2010 00:00:00 -1.61754 C 73.4912 % -5.73 C
200 18-02-2010 00:00:00 3.2569 C 75.4138 % -0.66 C
Sensor: Nr:Datum:Temp:Feuchte:Taupunkt:
Aussen-T/F 201 19-02-2010 00:00:00 3.59375 C 66.6094 % -2.03 C
202 20-02-2010 00:00:00 1.69333 C 64.8167 % -4.2 C
203 21-02-2010 00:00:00 2.87833 C 72.0500 % -1.65 C
204 22-02-2010 00:00:00 6.76417 C 68.6833 % 1.42 C
205 23-02-2010 00:00:00 9.7875 C 76.2667 % 5.82 C
206 24-02-2010 00:00:00 9.55 C 71.2250 % 4.61 C
207 25-02-2010 00:00:00 9.58 C 64.7500 % 3.28 C
208 26-02-2010 00:00:00 8.62667 C 61.8917 % 1.74 C
209 27-02-2010 00:00:00 8.4025 C 48.0000 % -1.95 C
210 28-02-2010 00:00:00 8.30667 C 65.2417 % 2.18 C
211 01-03-2010 00:00:00 5.40917 C 55.1833 % -2.85 C
212 02-03-2010 00:00:00 3.135 C 64.5000 % -2.9 C
213 03-03-2010 00:00:00 2.9925 C 56.0000 % -4.91 C
214 04-03-2010 00:00:00 2.47395 C 46.4538 % -7.82 C
215 05-03-2010 00:00:00 0.77667 C 47.2000 % -9.17 C
216 06-03-2010 00:00:00 -0.47083 C 72.0000 % -4.89 C
217 07-03-2010 00:00:00 -1.6825 C 52.6417 % -10.08 C
218 08-03-2010 00:00:00 -1.21083 C 43.0500 % -12.16 C
219 09-03-2010 00:00:00 -0.87167 C 38.6333 % -13.19 C
220 10-03-2010 00:00:00 1.41667 C 32.7750 % -13.15 C
221 11-03-2010 00:00:00 0.40167 C 51.3333 % -8.45 C
222 12-03-2010 00:00:00 1.61167 C 71.3417 % -3 C
223 13-03-2010 00:00:00 4.36583 C 64.8667 % -1.65 C
224 14-03-2010 00:00:00 5.79833 C 56.7083 % -2.12 C
225 15-03-2010 00:00:00 6.445 C 67.4417 % 0.87 C
Sensor: Nr:Datum:Temp:Feuchte:Taupunkt:
Aussen-T/F 226 16-03-2010 00:00:00 6.08067 C 77.1933 % 2.4 C
227 17-03-2010 00:00:00 6.69417 C 58.9167 % -0.76 C
228 18-03-2010 00:00:00 10.12333 C 47.9167 % -0.4 C
229 19-03-2010 00:00:00 15.0225 C 36.2750 % 0.19 C
230 20-03-2010 00:00:00 14.37667 C 68.5333 % 8.67 C
231 21-03-2010 00:00:00 11.23667 C 85.1833 % 8.84 C
232 22-03-2010 00:00:00 9.7575 C 75.9583 % 5.73 C
233 23-03-2010 00:00:00 8.94 C 69.7083 % 3.71 C
234 24-03-2010 00:00:00 11.9975 C 58.5500 % 4.14 C
235 25-03-2010 00:00:00 14.27083 C 53.1750 % 4.88 C
236 26-03-2010 00:00:00 10.0325 C 74.5250 % 5.72 C
237 27-03-2010 00:00:00 9.34333 C 63.2500 % 2.73 C
238 28-03-2010 00:00:00 9.93478 C 66.1043 % 3.91 C
239 29-03-2010 00:00:00 11.88167 C 76.0000 % 7.79 C
240 30-03-2010 00:00:00 12.70672 C 57.7479 % 4.6 C
241 31-03-2010 00:00:00 8.18667 C 53.2250 % -0.75 C
242 01-04-2010 00:00:00 5.84333 C 52.3000 % -3.16 C
243 02-04-2010 00:00:00 6.48583 C 58.2667 % -1.1 C
244 03-04-2010 00:00:00 9.73667 C 59.2250 % 2.17 C
245 04-04-2010 00:00:00 8.98833 C 59.6417 % 1.57 C
246 05-04-2010 00:00:00 9.15083 C 51.2500 % -0.37 C
247 06-04-2010 00:00:00 10.38167 C 45.7750 % -0.79 C
248 07-04-2010 00:00:00 13.61167 C 43.0667 % 1.3 C
249 08-04-2010 00:00:00 12.375 C 63.8000 % 5.72 C
250 09-04-2010 00:00:00 11.49917 C 57.1917 % 3.34 C
Sensor: Nr:Datum:Temp:Feuchte:Taupunkt:
Aussen-T/F 251 10-04-2010 00:00:00 11.3575 C 45.4833 % 0.01 C
252 11-04-2010 00:00:00 7.86667 C 53.1250 % -1.07 C
253 12-04-2010 00:00:00 7.44958 C 67.1176 % 1.76 C
254 13-04-2010 00:00:00 11.85583 C 58.3000 % 3.94 C
255 14-04-2010 00:00:00 11.76417 C 44.4000 % 0.05 C
256 15-04-2010 00:00:00 11.8575 C 47.2917 % 1.01 C
257 16-04-2010 00:00:00 9.71583 C 46.7750 % -1.1 C
258 17-04-2010 00:00:00 11.1225 C 45.0083 % -0.34 C
259 18-04-2010 00:00:00 13.27917 C 39.1333 % -0.32 C
260 19-04-2010 00:00:00 11.18333 C 50.5667 % 1.32 C
261 20-04-2010 00:00:00 11.13833 C 50.6583 % 1.3 C
262 21-04-2010 00:00:00 7.34417 C 48.4667 % -2.8 C
263 22-04-2010 00:00:00 8.35333 C 45.1250 % -2.83 C
264 23-04-2010 00:00:00 11.44917 C 39.7500 % -1.74 C
265 24-04-2010 00:00:00 14.91167 C 35.7417 % -0.11 C
266 25-04-2010 00:00:00 17.1075 C 36.0667 % 1.96 C
267 26-04-2010 00:00:00 15.72269 C 52.7899 % 6.12 C
268 27-04-2010 00:00:00 15.50417 C 47.7417 % 4.48 C
269 28-04-2010 00:00:00 16.8925 C 44.0167 % 4.58 C
270 29-04-2010 00:00:00 19.21417 C 40.4917 % 5.48 C
271 30-04-2010 00:00:00 18.69583 C 44.4333 % 6.35 C
272 01-05-2010 00:00:00 15.09917 C 52.5333 % 5.47 C
273 02-05-2010 00:00:00 13.48583 C 65.3833 % 7.13 C
274 03-05-2010 00:00:00 10.01667 C 73.7583 % 5.56 C
275 04-05-2010 00:00:00 9.78833 C 59.6167 % 2.32 C
Sensor: Nr:Datum:Temp:Feuchte:Taupunkt:
Aussen-T/F 276 05-05-2010 00:00:00 10.09083 C 40.0167 % -2.87 C
277 06-05-2010 00:00:00 6.68167 C 89.3500 % 5.06 C
278 07-05-2010 00:00:00 6.49417 C 88.9000 % 4.8 C
279 08-05-2010 00:00:00 11.06218 C 63.5126 % 4.41 C
280 09-05-2010 00:00:00 12.575 C 62.7583 % 5.67 C
281 10-05-2010 00:00:00 11.99917 C 62.6167 % 5.1 C
282 11-05-2010 00:00:00 11.53167 C 66.0583 % 5.42 C
283 12-05-2010 00:00:00 8.62333 C 73.6000 % 4.18 C
284 13-05-2010 00:00:00 8.07667 C 75.9167 % 4.09 C
285 14-05-2010 00:00:00 8.97333 C 81.9833 % 6.07 C
286 15-05-2010 00:00:00 10.6825 C 60.3500 % 3.33 C
287 16-05-2010 00:00:00 13.32917 C 45.9333 % 1.95 C
288 17-05-2010 00:00:00 10.56917 C 73.2083 % 5.98 C
289 18-05-2010 00:00:00 11.44333 C 59.0083 % 3.73 C
290 19-05-2010 00:00:00 10.30583 C 66.0083 % 4.24 C
291 20-05-2010 00:00:00 12.64034 C 56.8739 % 4.32 C
292 21-05-2010 00:00:00 16.54333 C 54.3833 % 7.31 C
293 22-05-2010 00:00:00 18.32583 C 49.5167 % 7.59 C
294 23-05-2010 00:00:00 20.32083 C 49.1083 % 9.3 C
295 24-05-2010 00:00:00 21.23 C 48.1667 % 9.84 C
296 25-05-2010 00:00:00 20.64583 C 44.5083 % 8.14 C
297 26-05-2010 00:00:00 15.41917 C 68.9500 % 9.75 C
298 27-05-2010 00:00:00 15.6175 C 61.4583 % 8.24 C
299 28-05-2010 00:00:00 17.3075 C 53.8500 % 7.88 C
300 29-05-2010 00:00:00 16.34 C 52.0167 % 6.48 C
Sensor: Nr:Datum:Temp:Feuchte:Taupunkt:
Aussen-T/F 301 30-05-2010 00:00:00 14.5975 C 71.3750 % 9.48 C
302 31-05-2010 00:00:00 11.56667 C 78.6667 % 7.99 C
303 01-06-2010 00:00:00 16.01833 C 61.6500 % 8.66 C
304 02-06-2010 00:00:00 17.66471 C 51.7731 % 7.63 C
305 03-06-2010 00:00:00 20.49083 C 44.3000 % 7.93 C
306 04-06-2010 00:00:00 21.43 C 42.1333 % 8.04 C
307 05-06-2010 00:00:00 22.97667 C 42.9500 % 9.72 C
308 06-06-2010 00:00:00 20.91333 C 60.9250 % 13.1 C
309 07-06-2010 00:00:00 19.58833 C 53.6333 % 9.93 C
310 08-06-2010 00:00:00 19.76833 C 55.8333 % 10.7 C
311 09-06-2010 00:00:00 22.5625 C 56.5667 % 13.5 C
312 10-06-2010 00:00:00 22.76417 C 66.8333 % 16.28 C
313 11-06-2010 00:00:00 22.89167 C 56.7417 % 13.86 C
314 12-06-2010 00:00:00 18.84917 C 63.4750 % 11.77 C
315 13-06-2010 00:00:00 18.25083 C 50.0250 % 7.67 C
316 14-06-2010 00:00:00 19.76667 C 45.7833 % 7.76 C
317 15-06-2010 00:00:00 18.9 C 49.7311 % 8.18 C
318 16-06-2010 00:00:00 18.82833 C 38.3167 % 4.34 C
319 17-06-2010 00:00:00 15.08583 C 71.6167 % 10 C
320 18-06-2010 00:00:00 15.2325 C 71.9167 % 10.2 C
321 19-06-2010 00:00:00 14.2725 C 51.1167 % 4.32 C
322 20-06-2010 00:00:00 13.20333 C 59.2167 % 5.43 C
323 21-06-2010 00:00:00 14.11083 C 52.4833 % 4.55 C
324 22-06-2010 00:00:00 17.38667 C 47.4833 % 6.12 C
325 23-06-2010 00:00:00 19.75917 C 47.6667 % 8.34 C
Sensor: Nr:Datum:Temp:Feuchte:Taupunkt:
Aussen-T/F 326 24-06-2010 00:00:00 22.54833 C 43.3500 % 9.47 C
327 25-06-2010 00:00:00 23.37 C 41.1917 % 9.45 C
328 26-06-2010 00:00:00 23.635 C 41.1583 % 9.67 C
329 27-06-2010 00:00:00 24.49417 C 40.2750 % 10.12 C
330 28-06-2010 00:00:00 25.25546 C 38.9832 % 10.31 C
331 29-06-2010 00:00:00 24.86167 C 43.0500 % 11.45 C
332 30-06-2010 00:00:00 24.6175 C 44.6583 % 11.78 C
333 01-07-2010 00:00:00 25.8425 C 40.2750 % 11.32 C
334 02-07-2010 00:00:00 26.96667 C 37.4917 % 11.24 C
335 03-07-2010 00:00:00 26.33 C 45.6083 % 13.66 C
336 04-07-2010 00:00:00 26.44833 C 48.2917 % 14.65 C
337 05-07-2010 00:00:00 22.02083 C 46.5417 % 10.05 C
338 06-07-2010 00:00:00 20.17833 C 47.7667 % 8.76 C
339 07-07-2010 00:00:00 22.53417 C 40.7500 % 8.54 C
340 08-07-2010 00:00:00 26.43417 C 34.8333 % 9.67 C
341 09-07-2010 00:00:00 27.51333 C 35.5750 % 10.93 C
342 10-07-2010 00:00:00 29.25667 C 36.9500 % 13.04 C
343 11-07-2010 00:00:00 28.48319 C 46.0252 % 15.75 C
344 12-07-2010 00:00:00 27.1175 C 42.8500 % 13.41 C
345 13-07-2010 00:00:00 25.36083 C 44.2167 % 12.31 C
346 14-07-2010 00:00:00 25.98917 C 48.2250 % 14.2 C
347 15-07-2010 00:00:00 22.6525 C 43.7250 % 9.69 C
348 16-07-2010 00:00:00 23.97667 C 38.9833 % 9.17 C
349 17-07-2010 00:00:00 21.99167 C 52.4833 % 11.83 C
350 18-07-2010 00:00:00 21.73833 C 38.4417 % 6.98 C
Sensor: Nr:Datum:Temp:Feuchte:Taupunkt:
Aussen-T/F 351 19-07-2010 00:00:00 23.63167 C 37.6000 % 8.33 C
352 20-07-2010 00:00:00 25.03833 C 36.6583 % 9.2 C
353 21-07-2010 00:00:00 24.73833 C 41.0417 % 10.62 C
354 22-07-2010 00:00:00 21.34917 C 62.1250 % 13.8 C
355 23-07-2010 00:00:00 20.17059 C 65.9748 % 13.61 C
356 24-07-2010 00:00:00 19.00667 C 56.1417 % 10.07 C
357 25-07-2010 00:00:00 17.26833 C 53.0333 % 7.62 C
358 26-07-2010 00:00:00 17.2925 C 77.8500 % 13.39 C
359 27-07-2010 00:00:00 19.815 C 58.8583 % 11.54 C
360 28-07-2010 00:00:00 20.5075 C 62.7583 % 13.17 C
361 29-07-2010 00:00:00 16.32417 C 82.1667 % 13.28 C
362 30-07-2010 00:00:00 19.665 C 55.1000 % 10.41 C
363 31-07-2010 00:00:00 20.62417 C 50.6750 % 10.04 C
364 01-08-2010 00:00:00 22.90833 C 58.5833 % 14.36 C
365 02-08-2010 00:00:00 19.60917 C 66.5833 % 13.22 C

Maximal/Minimal-Werte vom 03.08.2009 - 02.08.2010

Sensor Min Max Avg
Temp
(Aussen-T/F)
-16.4 °C
20-12-2009  01:30:01
36 °C
10-07-2010  17:47:03
11.63 °C
Feuchte
(Aussen-T/F)
20 %
04-08-2009  13:06:37
95 %
14-09-2009  02:22:03
63.7 %
Taupunkt
(Aussen-T/F)
-19.18 C
19-12-2009  00:00:00
16.28 C
10-06-2010  00:00:00
4.28 C

Die Daten stammen von einer Davis Vantage Pro 2 Wetter-Station und werden unter Linux mit der Software wview2wettercgi und aufbereitet. Alle Angaben erfolgen ohne Gewähr für ihre Vollständigkeit oder Richtigkeit.
Kontakt: Rainer Krienke krienke@uni-koblenz.de . Meine Webseiten an der Uni Koblenz oder privat.
Version: $Revision: 0.78 $